[[{"header":{"parameterUnit":"m.s-1","parameterCategory":1,"la1":30.2991,"la2":30.254,"lo1":-89.0895,"lo2":-89.0444,"dy":0.0017,"dx":0.0017,"nx":28,"ny":28,"refTime":"2026-02-06T03:00:00:Z","depth":0,"parameterNumber":2,"parameterNumberName":"U-component_of_WINDS"},"data":[0,0,0,0,0,0,0,0,0,0,0,0,0,0,0,0,0,0,0,0,0,0,0,0,0,0,0,0,0,0,0,0,0,0,0,0,0,0,0,0,0,0,0,0,0,0,0,0,0,0,0,0,0,0,0,0,0,0,2.479,2.479,0,2.4802,2.4802,2.4802,2.4729,2.4726,2.4724,2.4722,2.4738,2.474,2.4743,0,0,0,0,0,0,0,0,0,0,0,0,0,2.4709,2.4711,2.479,2.479,2.479,2.4802,2.4802,2.4802,2.4729,2.4726,2.4724,2.4721,2.4737,2.474,2.4743,0,0,0,0,0,0,0,0,0,0,0,0,0,2.4735,2.4712,2.479,2.4755,2.4752,2.4802,2.4802,2.4802,2.4729,2.4726,2.4723,2.472,2.4736,2.474,2.4743,2.4828,0,0,2.4754,2.4755,0,0,0,0,0,0,0,0,2.4734,2.4738,2.476,2.4758,2.4754,2.476,2.4779,2.4811,2.473,2.4738,2.4722,2.4719,2.4748,2.475,2.476,2.4828,2.4829,2.4754,2.4756,2.4758,2.4759,0,0,0,0,0,0,0,2.4732,2.4737,2.4795,2.4761,2.4757,2.474,2.4741,2.4785,2.4761,2.4737,2.4732,2.4734,2.4746,2.4756,2.4759,2.4829,2.4754,2.4757,2.4759,2.4761,2.4971,2.4974,0,0,0,0,0,0,2.4734,2.4736,2.4794,2.4795,2.4736,2.4744,2.4745,2.4762,2.476,2.4757,2.4737,2.4731,2.4752,2.4755,2.476,2.486,2.4758,2.4761,2.4763,2.4967,2.4971,2.4975,0,0,0,0,0,0,2.4733,2.474,2.4794,2.4764,2.477,2.4749,2.4769,2.4764,2.4774,2.476,2.4755,2.4752,2.475,2.4755,2.4812,2.486,2.4763,2.4766,2.4963,2.4969,2.4973,2.5061,0,0,0,0,0,0,2.4731,2.474,2.4771,2.4765,2.4772,2.4844,2.4772,2.4766,2.478,2.4772,2.4772,2.4769,2.4748,2.4807,2.4815,2.4863,2.4769,2.4959,2.4966,2.4972,2.5054,2.5069,2.5081,0,0,0,0,0,2.4728,2.4795,2.4773,2.478,2.4809,2.4847,2.4851,2.4823,2.4784,2.4815,2.4807,2.4769,2.4853,2.4813,2.4822,2.4872,2.4956,2.4964,2.4971,2.5048,2.5066,2.5081,0,0,0,0,0,0,2.4808,2.4794,2.4769,2.4836,2.4843,2.4835,2.4873,2.4843,2.4862,2.4854,2.482,2.4821,2.4885,2.4883,2.4839,2.4955,2.4898,2.4908,2.4953,2.497,2.4983,2.4983,2.4772,0,0,0,0,0,2.4833,2.4863,2.485,2.4911,2.4916,2.4894,2.491,2.4888,2.4895,2.4898,2.4893,2.4902,2.4931,2.495,2.4975,2.5053,2.5054,2.5092,2.5106,2.5117,2.5126,2.517,2.5188,2.5001,2.5001,2.5,0,0,2.4885,2.4882,2.4903,2.4927,2.493,2.4964,2.4897,2.4936,2.4961,2.4904,2.4957,2.4955,2.4963,2.5031,2.5061,2.5032,2.5178,2.5127,2.5136,2.5139,2.518,2.5198,2.5213,2.5006,2.5005,2.5004,0,0,2.4999,2.4998,2.5049,2.5054,2.506,2.5045,2.5058,2.5054,2.505,2.5103,2.5061,2.5092,2.5141,2.5149,2.516,2.5279,2.5246,2.5288,2.536,2.5403,2.5418,2.5431,2.5476,2.5492,2.5297,2.5298,2.5298,0,2.5064,2.5112,2.508,2.5122,2.5134,2.5083,2.5136,2.5143,2.5157,2.5168,2.5135,2.5197,2.5198,2.5269,2.5299,2.5308,2.5323,2.5288,2.5418,2.5431,2.5443,2.5485,2.5501,2.5303,2.5302,2.5302,2.5301,0,2.5193,2.5227,2.5268,2.5283,2.53,2.5347,2.5324,2.5345,2.5323,2.5313,2.5369,2.5369,2.5395,2.541,2.5388,2.5478,2.5461,2.5424,2.5366,2.5466,2.5505,2.5521,2.531,2.5308,2.5307,2.5305,0,0,2.5356,2.5353,2.5369,2.5375,2.5379,2.5405,2.5451,2.5475,2.5496,2.5508,2.5547,2.5591,2.5557,2.5569,2.5548,2.5586,2.5683,2.5544,2.5544,2.5572,2.5785,2.5814,2.5833,2.5661,2.5664,2.5666,2.5785,0,2.5468,2.5545,2.5518,2.5598,2.563,2.5583,2.5624,2.5631,2.5624,2.5652,2.5643,2.5675,2.5628,2.5635,2.567,2.5663,2.5725,2.5654,2.5699,2.5701,2.57,2.5853,2.5883,2.5996,2.58,2.5803,2.5804,0,2.5609,2.5626,2.5709,2.5708,2.5721,2.5757,2.5779,2.5805,2.5814,2.5806,2.582,2.5792,2.5839,2.5781,2.5847,2.58,2.5817,2.5816,2.582,2.5824,2.576,2.5863,2.603,2.6048,2.5828,2.5826,2.5824,0,2.5722,2.5766,2.5821,2.5828,2.5829,2.5856,2.5858,2.5863,2.588,2.5899,2.591,2.5935,2.5949,2.597,2.595,2.5909,2.602,2.5959,2.6016,2.6017,2.6043,2.6042,2.6217,2.6051,2.6051,2.6051,2.605,0,2.585,2.5903,2.5872,2.5907,2.5965,2.5935,2.5995,2.5991,2.5997,2.6031,2.5992,2.6026,2.5996,2.6028,2.6013,2.6071,2.6078,2.6074,2.607,2.6078,2.6079,2.609,2.6082,2.6055,2.6054,2.6053,2.6053,0,2.5987,2.5968,2.6026,2.6021,2.6022,2.6065,2.6062,2.6095,2.6085,2.6129,2.6138,2.6123,2.6158,2.614,2.6177,2.6167,2.6243,2.6227,2.624,2.6236,2.6295,2.6291,2.6485,2.651,2.6327,2.6329,2.633,0,2.6071,2.611,2.611,2.613,2.6134,2.6167,2.6184,2.6156,2.6176,2.619,2.6222,2.6254,2.6278,2.6337,2.6331,2.6359,2.6345,2.6411,2.6349,2.6358,2.6349,2.6347,2.6352,2.6424,2.6426,2.6428,2.6429,0,2.6222,2.6211,2.6237,2.626,2.6282,2.6299,2.6313,2.6332,2.6305,2.633,2.6365,2.6384,2.6422,2.6455,2.648,2.6484,2.6454,2.6449,2.6464,2.6474,2.6481,2.648,2.6276,2.6445,2.6443,2.6442,2.6441,2.6441,2.6336,2.637,2.6376,2.6406,2.6414,2.6429,2.646,2.6454,2.6482,2.651,2.6493,2.6535,2.6545,2.6576,2.6584,2.6618,2.6592,2.6613,2.6619,2.6625,2.6634,2.6474,2.6622,2.6622,2.6621,2.6621,2.6621,0,2.6487,2.6489,2.6517,2.6538,2.6563,2.6531,2.6545,2.6569,2.6606,2.6617,2.6642,2.6684,2.6717,2.6713,2.6743,2.6772,2.6759,2.6781,2.6779,2.6781,2.6654,2.6639,2.6791,2.6791,2.6791,2.6791,2.6791,2.6791,2.6569,2.6625,2.6616,2.6676,2.6678,2.6718,2.6729,2.6744,2.6753,2.6801,2.6828,2.6824,2.6831,2.6861,2.6891,2.6889,2.6903,2.6931,2.6924,2.6806,2.679,2.6774,2.6759,2.6934,2.6934,2.7048,2.7049,2.705]},{"header":{"parameterUnit":"m.s-1","parameterCategory":1,"la1":30.2991,"la2":30.254,"lo1":-89.0895,"lo2":-89.0444,"dy":0.0017,"dx":0.0017,"nx":28,"ny":28,"refTime":"2026-02-06T03:00:00:Z","depth":0,"parameterNumber":3,"parameterNumberName":"V-component_of_WINDS"},"data":[0,0,0,0,0,0,0,0,0,0,0,0,0,0,0,0,0,0,0,0,0,0,0,0,0,0,0,0,0,0,0,0,0,0,0,0,0,0,0,0,0,0,0,0,0,0,0,0,0,0,0,0,0,0,0,0,0,0,-2.4013,-2.4014,0,-2.4058,-2.4058,-2.4059,-2.4107,-2.4108,-2.4108,-2.4109,-2.4152,-2.4152,-2.4153,0,0,0,0,0,0,0,0,0,0,0,0,0,-2.3968,-2.3969,-2.4013,-2.4014,-2.4015,-2.4058,-2.4058,-2.4059,-2.4107,-2.4108,-2.4109,-2.4109,-2.4152,-2.4152,-2.4153,0,0,0,0,0,0,0,0,0,0,0,0,0,-2.3998,-2.3969,-2.4013,-2.4044,-2.4047,-2.4058,-2.4058,-2.4059,-2.4107,-2.4108,-2.4109,-2.411,-2.4151,-2.4152,-2.4153,-2.4136,0,0,-2.4155,-2.4155,0,0,0,0,0,0,0,0,-2.3996,-2.3999,-2.4039,-2.4042,-2.4045,-2.4078,-2.4058,-2.4085,-2.4106,-2.4084,-2.4109,-2.411,-2.4126,-2.4129,-2.4135,-2.4138,-2.414,-2.4155,-2.4156,-2.4156,-2.4156,0,0,0,0,0,0,0,-2.3994,-2.3998,-2.4031,-2.4039,-2.4043,-2.4054,-2.406,-2.4063,-2.4098,-2.4086,-2.409,-2.4094,-2.4128,-2.4134,-2.4136,-2.4141,-2.4155,-2.4156,-2.4156,-2.4157,-2.4133,-2.4132,0,0,0,0,0,0,-2.3987,-2.3996,-2.4029,-2.4032,-2.4023,-2.4054,-2.406,-2.4066,-2.4099,-2.4105,-2.4093,-2.4096,-2.4132,-2.4135,-2.4138,-2.4121,-2.4156,-2.4157,-2.4157,-2.4134,-2.4133,-2.4132,0,0,0,0,0,0,-2.3986,-2.399,-2.4028,-2.4015,-2.4021,-2.4054,-2.406,-2.4067,-2.4073,-2.4104,-2.4111,-2.4093,-2.4133,-2.4137,-2.4137,-2.4123,-2.4157,-2.4158,-2.4136,-2.4134,-2.4133,-2.4087,0,0,0,0,0,0,-2.3985,-2.3989,-2.3984,-2.4014,-2.4021,-2.4026,-2.406,-2.4067,-2.4074,-2.4079,-2.4106,-2.4111,-2.4135,-2.4135,-2.4137,-2.4125,-2.4158,-2.4137,-2.4135,-2.4133,-2.409,-2.4084,-2.4079,0,0,0,0,0,-2.3983,-2.3968,-2.3983,-2.3987,-2.4015,-2.4025,-2.4029,-2.4057,-2.4073,-2.4067,-2.4088,-2.411,-2.4125,-2.4135,-2.4138,-2.4125,-2.4138,-2.4136,-2.4133,-2.4092,-2.4085,-2.4079,0,0,0,0,0,0,-2.3934,-2.3973,-2.399,-2.3985,-2.4002,-2.4033,-2.4027,-2.4048,-2.406,-2.4063,-2.4097,-2.4102,-2.4098,-2.4112,-2.4123,-2.4111,-2.4135,-2.4133,-2.4102,-2.4096,-2.4091,-2.4087,-2.4159,0,0,0,0,0,-2.3923,-2.3929,-2.3962,-2.3955,-2.3962,-2.3993,-2.3999,-2.4019,-2.4037,-2.4044,-2.4064,-2.408,-2.4088,-2.4093,-2.4102,-2.4092,-2.4099,-2.4085,-2.4079,-2.4075,-2.4073,-2.4069,-2.4063,-2.4124,-2.4124,-2.4124,0,0,-2.39,-2.3922,-2.3923,-2.3945,-2.3961,-2.3965,-2.3999,-2.4002,-2.4006,-2.4044,-2.4045,-2.4061,-2.4081,-2.4076,-2.4074,-2.4087,-2.4057,-2.4072,-2.4068,-2.4068,-2.4066,-2.406,-2.4054,-2.4123,-2.4123,-2.4123,0,0,-2.386,-2.3877,-2.3873,-2.3888,-2.3911,-2.3931,-2.393,-2.3959,-2.3971,-2.3973,-2.4002,-2.4007,-2.402,-2.4034,-2.4042,-2.4008,-2.4029,-2.401,-2.3981,-2.3977,-2.3972,-2.3968,-2.3956,-2.3951,-2.4007,-2.4007,-2.4007,0,-2.3827,-2.3836,-2.3868,-2.387,-2.3878,-2.3915,-2.391,-2.3923,-2.3947,-2.3952,-2.3966,-2.3984,-2.4,-2.3999,-2.3991,-2.3996,-2.3996,-2.4006,-2.397,-2.3967,-2.3963,-2.3952,-2.3947,-2.4005,-2.4005,-2.4005,-2.4006,0,-2.3796,-2.3801,-2.3795,-2.3819,-2.3827,-2.3826,-2.3856,-2.3861,-2.388,-2.3899,-2.3901,-2.3922,-2.3936,-2.3937,-2.3956,-2.3938,-2.3946,-2.3964,-2.3989,-2.3954,-2.3944,-2.394,-2.4001,-2.4002,-2.4003,-2.4004,0,0,-2.3725,-2.3767,-2.3764,-2.3776,-2.3804,-2.3809,-2.3809,-2.3824,-2.3827,-2.3843,-2.3844,-2.3854,-2.3873,-2.3882,-2.3903,-2.3899,-2.387,-2.3918,-2.3919,-2.3909,-2.3853,-2.3838,-2.3832,-2.3885,-2.3884,-2.3884,-2.3851,0,-2.369,-2.3694,-2.3722,-2.3717,-2.3723,-2.3757,-2.3758,-2.3775,-2.3793,-2.38,-2.382,-2.3827,-2.385,-2.3856,-2.3854,-2.3874,-2.386,-2.3877,-2.3885,-2.3885,-2.3879,-2.3827,-2.3812,-2.3779,-2.3847,-2.3846,-2.3846,0,-2.3649,-2.3663,-2.3659,-2.3688,-2.3692,-2.3691,-2.3708,-2.3714,-2.3734,-2.3748,-2.3759,-2.3782,-2.3784,-2.3807,-2.381,-2.3822,-2.3827,-2.3837,-2.3837,-2.3838,-2.3863,-2.3827,-2.377,-2.3765,-2.384,-2.3841,-2.3841,0,-2.3598,-2.3616,-2.3616,-2.3625,-2.3659,-2.3658,-2.3672,-2.3693,-2.37,-2.3714,-2.3719,-2.3733,-2.374,-2.375,-2.3777,-2.3791,-2.3776,-2.3802,-2.3787,-2.3786,-2.3782,-2.3782,-2.3725,-2.3786,-2.3786,-2.3786,-2.3786,0,-2.3555,-2.3551,-2.3594,-2.3594,-2.359,-2.3623,-2.3618,-2.3636,-2.3654,-2.3658,-2.3689,-2.3691,-2.3726,-2.3733,-2.3754,-2.3753,-2.3756,-2.3766,-2.3772,-2.3764,-2.3762,-2.3767,-2.377,-2.3785,-2.3785,-2.3785,-2.3785,0,-2.3497,-2.3526,-2.3528,-2.356,-2.3568,-2.3564,-2.3592,-2.3593,-2.3613,-2.3617,-2.362,-2.3652,-2.3661,-2.3689,-2.3705,-2.3719,-2.3712,-2.3722,-2.3705,-2.3708,-2.3692,-2.3693,-2.3636,-2.363,-2.3695,-2.3694,-2.3694,0,-2.3468,-2.3466,-2.3498,-2.3503,-2.3516,-2.3524,-2.3532,-2.3564,-2.3571,-2.3594,-2.3592,-2.3604,-2.3615,-2.3628,-2.3652,-2.3665,-2.3676,-2.3655,-2.3678,-2.3669,-2.3675,-2.3675,-2.3675,-2.365,-2.3649,-2.3648,-2.3647,0,-2.3412,-2.3427,-2.3438,-2.3453,-2.3462,-2.3476,-2.3491,-2.3494,-2.353,-2.3536,-2.3546,-2.3555,-2.3572,-2.3583,-2.36,-2.3613,-2.3636,-2.364,-2.3638,-2.3629,-2.3619,-2.3624,-2.3691,-2.3641,-2.3642,-2.3642,-2.3643,-2.3643,-2.3368,-2.3368,-2.3391,-2.3402,-2.3417,-2.3431,-2.3434,-2.3455,-2.3464,-2.3481,-2.35,-2.3508,-2.3529,-2.3553,-2.3565,-2.3572,-2.3584,-2.358,-2.3579,-2.3578,-2.3574,-2.3618,-2.3575,-2.3575,-2.3576,-2.3576,-2.3576,0,-2.3314,-2.3331,-2.3341,-2.3362,-2.3371,-2.3393,-2.3411,-2.3416,-2.3424,-2.3441,-2.3452,-2.3464,-2.3475,-2.3501,-2.3514,-2.3515,-2.3526,-2.3517,-2.3517,-2.352,-2.3562,-2.3563,-2.3508,-2.3508,-2.3508,-2.3508,-2.3508,-2.3508,-2.3287,-2.3288,-2.3306,-2.3315,-2.3331,-2.334,-2.3349,-2.3362,-2.3376,-2.3389,-2.3399,-2.3415,-2.3436,-2.3452,-2.3463,-2.347,-2.3474,-2.3462,-2.3472,-2.3511,-2.3517,-2.3523,-2.3524,-2.3462,-2.3462,-2.343,-2.343,-2.3429]}]]